EW3197 Weather Reports


time (UTC)temp
F
wind
direction
speed
knots
gust
knots
rain 1hr
in
rain 24hr
in
rain mn
in
humidity
%
barometer
mb
20260510152204 66 228 0.9 4.3 0.00 0.14 0.00 70 1012.0
20260510151704 65 207 1.7 2.6 0.00 0.15 0.00 71 1011.9
20260510151204 65 207 2.6 5.2 0.00 0.15 0.00 72 1011.9
20260510150704 65 250 0.9 2.6 0.00 0.15 0.00 74 1012.0
20260510150204 64 255 0.9 2.6 0.00 0.15 0.00 75 1012.0
20260510145204 63 234 1.7 4.3 0.00 0.15 0.00 75 1012.0
20260510144704 64 239 1.7 2.6 0.00 0.15 0.00 74 1012.0
20260510144204 63 239 0.9 2.6 0.00 0.15 0.00 76 1011.9
20260510143204 63 241 0.9 1.7 0.00 0.15 0.00 76 1011.9
20260510141204 61 241 0.9 2.6 0.00 0.16 0.00 78 1012.0
20260510135704 60 243 0.9 5.2 0.00 0.16 0.00 78 1012.2
20260510134704 60 211 2.6 5.2 0.00 0.17 0.00 79 1012.2
20260510134204 60 218 0.0 2.6 0.00 0.17 0.00 81 1012.1
20260510133704 59 217 1.7 2.6 0.00 0.17 0.00 80 1012.2
20260510133204 59 228 1.7 5.2 0.00 0.17 0.00 81 1012.2
20260510132704 59 226 1.7 5.2 0.00 0.17 0.00 81 1012.2
20260510131204 58 267 0.0 1.7 0.00 0.17 0.00 83 1012.4
20260510130705 57 267 0.0 1.7 0.00 0.17 0.00 83 1012.5
20260510130204 57 267 0.0 0.9 0.00 0.17 0.00 84 1012.4
20260510125704 57 267 0.0 0.9 0.00 0.17 0.00 84 1012.3
20260510125204 56 267 0.0 0.0 0.00 0.17 0.00 85 1012.3
20260510124704 56 267 0.0 1.7 0.00 0.17 0.00 85 1012.3
20260510124204 56 267 0.0 0.0 0.00 0.17 0.00 86 1012.1
20260510123705 56 267 0.0 0.0 0.00 0.17 0.00 87 1012.2
20260510123204 55 267 0.0 0.0 0.00 0.17 0.00 87 1012.1
20260510122204 55 267 0.0 0.9 0.00 0.17 0.00 88 1012.0
20260510121704 55 267 0.0 0.0 0.00 0.17 0.00 88 1012.0
20260510120704 54 267 0.0 0.0 0.00 0.17 0.00 88 1012.2
20260510120205 54 267 0.0 0.0 0.00 0.18 0.00 88 1012.1
20260510115704 54 267 0.0 0.0 0.00 0.18 0.00 88 1012.1
20260510115205 54 267 0.0 0.0 0.00 0.18 0.00 88 1012.0
20260510114704 54 267 0.0 0.0 0.00 0.18 0.00 88 1012.0
20260510113704 54 267 0.0 0.0 0.00 0.18 0.00 88 1012.0
20260510113204 54 267 0.0 0.0 0.00 0.18 0.00 88 1012.1
20260510112703 54 267 0.0 0.0 0.00 0.18 0.00 89 1012.1
20260510111204 54 267 0.0 0.0 0.00 0.18 0.00 89 1012.0
20260510110704 53 267 0.0 0.0 0.00 0.18 0.00 89 1012.1
20260510110203 53 267 0.0 0.0 0.00 0.18 0.00 89 1012.0
20260510105704 53 267 0.0 0.0 0.00 0.18 0.00 89 1011.9
20260510105204 53 267 0.0 0.0 0.00 0.19 0.00 89 1011.9
20260510104204 53 267 0.0 0.0 0.00 0.20 0.00 89 1011.8
20260510103704 53 267 0.0 0.0 0.00 0.20 0.00 89 1011.8
20260510102704 53 267 0.0 0.9 0.00 0.21 0.00 89 1011.6
20260510102204 53 267 0.0 0.9 0.00 0.21 0.00 89 1011.7
20260510101704 53 266 0.0 0.0 0.00 0.22 0.00 89 1011.6
20260510101204 53 266 0.0 1.7 0.00 0.23 0.00 89 1011.5
20260510100705 52 266 0.0 0.9 0.00 0.23 0.00 90 1011.3
20260510100204 52 266 0.0 1.7 0.00 0.24 0.00 90 1011.1
20260510095705 52 268 0.0 0.9 0.00 0.25 0.00 90 1011.2
20260510095205 52 268 0.0 0.9 0.00 0.26 0.00 90 1011.3
20260510094704 52 268 0.0 0.0 0.00 0.27 0.00 90 1011.1
20260510094204 52 268 0.0 0.9 0.00 0.28 0.00 90 1011.1
20260510093205 52 285 0.0 1.7 0.00 0.30 0.00 90 1010.9
20260510092704 52 286 0.0 1.7 0.00 0.31 0.00 90 1010.7
20260510092204 52 286 0.0 1.7 0.00 0.32 0.00 90 1010.5
20260510091705 52 286 0.0 0.9 0.00 0.32 0.00 90 1010.6
20260510091206 52 286 0.0 2.6 0.00 0.33 0.00 90 1010.5
20260510090704 52 114 0.0 0.9 0.00 0.33 0.00 90 1010.3
20260510090205 52 112 0.0 1.7 0.00 0.34 0.00 90 1010.2
20260510085704 52 214 0.0 0.9 0.00 0.34 0.00 90 1010.2
20260510085204 51 214 0.0 0.9 0.00 0.35 0.00 90 1010.5
20260510084705 51 214 0.0 0.9 0.00 0.35 0.00 90 1010.7
20260510083704 51 214 0.0 0.0 0.00 0.37 0.00 90 1010.7
20260510082705 51 214 0.0 0.0 0.00 0.38 0.00 90 1010.9
20260510082205 51 214 0.0 0.0 0.00 0.39 0.00 90 1011.0
20260510081204 51 214 0.0 0.0 0.00 0.40 0.00 90 1011.4
20260510080705 51 214 0.0 0.0 0.00 0.40 0.00 90 1011.5
20260510080205 51 214 0.0 0.0 0.00 0.41 0.00 90 1011.5
20260510075705 51 214 0.0 0.0 0.00 0.42 0.00 90 1011.3
20260510075205 51 214 0.0 0.0 0.00 0.42 0.00 90 1011.3
20260510074705 51 214 0.0 0.0 0.00 0.42 0.00 90 1011.7
20260510074204 50 214 0.0 0.0 0.00 0.42 0.00 90 1011.6
20260510073204 50 214 0.0 0.0 0.00 0.42 0.00 90 1011.6
20260510072705 50 214 0.0 0.0 0.00 0.42 0.00 90 1011.6
20260510072204 50 214 0.0 0.0 0.00 0.42 0.00 90 1011.7
20260510071704 49 214 0.0 0.0 0.00 0.42 0.00 90 1011.7
20260510071204 49 214 0.0 0.0 0.00 0.42 0.00 90 1011.6
20260510070203 50 214 0.0 0.0 0.00 0.42 0.00 90 1011.4
20260510065704 50 214 0.0 0.0 0.00 0.42 0.00 90 1011.3
20260510065204 50 214 0.0 0.0 0.00 0.42 0.00 90 1011.1
20260510064204 49 214 0.0 0.0 0.00 0.42 0.00 90 1011.1
20260510062704 50 214 0.0 0.0 0.00 0.42 0.00 90 1011.1
20260510062204 49 214 0.0 0.9 0.00 0.42 0.00 89 1011.0
20260510061703 49 214 0.0 0.9 0.00 0.42 0.00 89 1010.9
20260510060704 50 214 0.0 0.0 0.00 0.42 0.00 89 1011.0
20260510055703 50 214 0.0 0.0 0.00 0.42 0.00 89 1011.2
20260510055204 50 214 0.0 0.0 0.00 0.42 0.00 89 1011.2
20260510054204 50 214 0.0 0.0 0.00 0.42 0.00 89 1011.3
20260510053704 50 214 0.0 0.0 0.00 0.42 0.00 89 1011.3
20260510053204 50 214 0.0 0.0 0.00 0.42 0.00 89 1011.3
20260510052704 50 214 0.0 0.0 0.00 0.42 0.00 89 1011.1
20260510052204 50 214 0.0 0.0 0.00 0.42 0.00 89 1011.0
20260510051704 50 214 0.0 0.0 0.00 0.42 0.00 89 1011.0
20260510051204 50 214 0.0 0.0 0.00 0.42 0.00 88 1011.1
20260510050704 51 214 0.0 0.0 0.00 0.42 0.00 88 1011.1
20260510050203 51 214 0.0 0.0 0.00 0.42 0.00 88 1011.0
20260510045703 52 214 0.0 0.0 0.00 0.42 0.00 88 1011.0
20260510045204 52 214 0.0 0.0 0.00 0.42 0.00 88 1011.1
20260510044703 52 214 0.0 0.0 0.00 0.42 0.00 88 1011.1
20260510044203 53 214 0.0 0.9 0.00 0.42 0.00 89 1011.1
20260510043204 53 214 0.0 0.0 0.00 0.42 0.00 89 1011.0
20260510042704 53 214 0.0 0.9 0.00 0.42 0.00 89 1011.1
20260510042204 53 214 0.0 1.7 0.00 0.42 0.00 89 1011.1
20260510041204 52 123 0.0 0.0 0.00 0.42 0.00 89 1011.3
20260510040704 52 123 0.0 0.0 0.00 0.42 0.00 89 1011.2
20260510040204 52 123 0.0 0.0 0.00 0.42 0.00 89 1011.2
20260510034704 52 123 0.0 0.0 0.00 0.42 0.42 89 1010.9
20260510034203 52 129 0.0 2.6 0.00 0.42 0.42 89 1011.0
20260510033704 52 132 0.0 1.7 0.00 0.42 0.42 89 1011.1
20260510033204 52 133 0.0 2.6 0.00 0.42 0.42 89 1011.1
20260510032704 52 129 0.0 0.0 0.00 0.42 0.42 89 1011.0
20260510032204 52 129 0.0 0.9 0.00 0.42 0.42 89 1010.9
20260510031705 52 128 0.0 0.0 0.00 0.42 0.42 90 1010.9
20260510031204 52 128 0.0 0.0 0.00 0.42 0.42 90 1011.1
20260510030703 52 128 0.0 0.0 0.00 0.42 0.42 90 1011.0
20260510025704 52 128 0.0 0.0 0.00 0.42 0.42 90 1011.1
20260510025204 52 129 0.0 0.9 0.00 0.42 0.42 90 1011.0
20260510024704 52 128 0.0 0.0 0.00 0.42 0.42 90 1011.1
20260510024204 52 128 0.0 0.0 0.00 0.42 0.42 90 1011.0
20260510023704 52 128 0.0 0.9 0.00 0.42 0.42 90 1011.1
20260510023204 52 128 0.0 0.0 0.00 0.42 0.42 90 1011.0
20260510022204 51 128 0.0 0.0 0.00 0.42 0.42 90 1011.1
20260510021703 51 128 0.0 0.9 0.00 0.42 0.42 90 1011.1
20260510021205 51 128 0.0 0.9 0.00 0.42 0.42 90 1011.1
20260510020704 50 128 0.0 0.0 0.00 0.42 0.42 90 1011.2
20260510020203 50 128 0.0 0.0 0.00 0.42 0.42 90 1011.1
20260510015704 50 128 0.0 0.0 0.00 0.42 0.42 90 1011.1
20260510015204 50 128 0.0 0.0 0.00 0.42 0.42 89 1011.1
20260510014704 50 128 0.0 0.0 0.00 0.42 0.42 89 1011.3
20260510014204 49 128 0.0 0.0 0.00 0.42 0.42 89 1011.0
20260510013704 50 128 0.0 0.0 0.00 0.42 0.42 89 1011.1
20260510013204 50 128 0.0 0.9 0.00 0.42 0.42 89 1011.1
20260510012703 50 128 0.0 0.0 0.00 0.42 0.42 89 1011.3
20260510012204 50 128 0.0 0.9 0.00 0.42 0.42 89 1011.3
20260510011704 50 128 0.9 1.7 0.00 0.42 0.42 89 1011.3
20260510011204 51 128 0.0 0.0 0.00 0.42 0.42 89 1011.2
20260510010704 51 128 0.0 0.9 0.00 0.42 0.42 89 1011.4
20260510010204 51 128 0.0 1.7 0.00 0.42 0.42 89 1011.4
20260510005204 51 128 0.0 0.0 0.00 0.42 0.42 89 1011.0
20260510004705 51 128 0.0 0.9 0.00 0.42 0.42 89 1010.9
20260510003204 51 128 0.0 0.9 0.00 0.42 0.42 88 1010.6
20260510002704 51 128 0.0 0.0 0.00 0.42 0.42 88 1010.7
20260510002204 51 128 0.0 0.9 0.00 0.42 0.42 88 1010.5
20260510001704 52 128 0.0 0.9 0.00 0.42 0.42 88 1010.3
20260510001204 52 128 0.0 1.7 0.00 0.42 0.42 88 1010.2
20260510000204 52 128 0.0 0.0 0.00 0.42 0.42 88 1010.0
20260509234704 53 129 0.9 2.6 0.00 0.42 0.42 87 1009.9
20260509234203 53 137 0.0 1.7 0.00 0.42 0.42 88 1009.9
20260509233704 53 137 0.9 2.6 0.00 0.42 0.42 88 1009.9
20260509233204 53 124 0.0 2.6 0.00 0.42 0.42 88 1010.0
20260509232204 53 121 0.0 2.6 0.00 0.42 0.42 88 1010.0
20260509231703 53 123 0.0 1.7 0.00 0.42 0.42 88 1010.0
20260509231204 53 122 0.9 2.6 0.00 0.42 0.42 88 1010.0
20260509230204 53 111 0.9 1.7 0.00 0.42 0.42 88 1010.0
20260509225704 53 106 0.0 2.6 0.00 0.42 0.42 88 1010.1
20260509225204 53 101 0.9 2.6 0.00 0.42 0.42 88 1010.1
20260509224703 53 208 0.0 0.9 0.00 0.42 0.42 88 1010.3
20260509224203 53 208 0.0 0.9 0.00 0.42 0.42 88 1010.2
20260509223704 53 208 0.0 0.9 0.00 0.42 0.42 88 1010.3
20260509223204 53 208 0.0 0.0 0.00 0.42 0.42 88 1010.4
20260509222704 53 208 0.0 0.9 0.00 0.42 0.42 88 1010.4
20260509222204 54 208 0.0 0.9 0.00 0.42 0.42 88 1010.3
20260509221704 54 208 0.0 0.0 0.00 0.42 0.42 88 1010.3
20260509220704 54 208 0.0 1.7 0.00 0.42 0.42 88 1010.3
20260509220204 54 208 0.9 1.7 0.00 0.42 0.42 88 1010.3
20260509215704 54 208 0.0 0.9 0.00 0.42 0.42 88 1010.3
20260509215204 54 208 0.9 1.7 0.00 0.42 0.42 88 1010.3
20260509214704 54 208 0.0 2.6 0.00 0.42 0.42 88 1010.3
20260509214204 54 207 0.0 1.7 0.00 0.42 0.42 88 1010.3
20260509213704 54 207 0.0 1.7 0.01 0.42 0.42 88 1010.3
20260509213204 54 207 0.0 1.7 0.01 0.42 0.42 88 1010.4
20260509212204 54 207 0.0 0.9 0.01 0.42 0.42 88 1010.4
20260509211704 53 207 0.0 1.7 0.01 0.42 0.42 88 1010.3
20260509211203 53 208 0.9 1.7 0.02 0.42 0.42 88 1010.4
20260509210704 53 208 0.9 1.7 0.02 0.42 0.42 88 1010.4
20260509210204 53 204 0.9 2.6 0.02 0.42 0.42 88 1010.5
20260509205704 53 188 0.9 2.6 0.02 0.42 0.42 88 1010.5
20260509205204 53 173 0.9 5.2 0.03 0.42 0.42 89 1010.6
20260509204704 53 39 0.9 1.7 0.03 0.42 0.42 89 1010.6
20260509203704 53 37 0.9 2.6 0.02 0.41 0.41 89 1010.8
20260509203204 53 51 0.0 0.9 0.02 0.41 0.41 89 1010.8
20260509202704 53 51 0.0 0.9 0.03 0.41 0.41 89 1010.9
20260509202204 53 48 0.9 4.3 0.03 0.41 0.41 89 1010.9
20260509201203 54 35 0.9 2.6 0.03 0.40 0.40 89 1011.0
20260509200704 54 78 0.9 7.0 0.03 0.40 0.40 89 1011.2
20260509200204 54 195 1.7 2.6 0.04 0.40 0.40 89 1011.3
20260509195704 54 196 1.7 6.1 0.04 0.40 0.40 89 1011.4
20260509195205 54 225 0.9 6.1 0.03 0.39 0.39 89 1011.4
20260509193704 54 234 0.0 0.9 0.04 0.39 0.39 90 1011.5
20260509193204 55 234 0.0 1.7 0.05 0.39 0.39 90 1011.5
20260509192704 55 239 0.9 2.6 0.04 0.38 0.38 90 1011.5
20260509192204 54 280 0.0 0.9 0.04 0.38 0.38 90 1011.5
20260509191703 55 280 0.0 0.9 0.04 0.38 0.38 90 1011.4
20260509191204 54 280 0.0 0.9 0.03 0.37 0.37 90 1011.4
20260509190703 54 280 0.0 0.9 0.04 0.37 0.37 90 1011.3
20260509190204 54 280 0.9 2.6 0.03 0.36 0.36 90 1011.4
20260509185704 54 281 0.0 0.9 0.03 0.36 0.36 90 1011.5
20260509185203 54 281 0.0 0.9 0.04 0.36 0.36 90 1011.5
20260509184704 54 281 0.0 0.0 0.03 0.35 0.35 90 1011.5
20260509184204 54 281 0.0 1.7 0.03 0.35 0.35 90 1011.5
20260509183704 54 281 0.9 2.6 0.03 0.35 0.35 90 1011.5
20260509182704 53 281 0.0 0.9 0.03 0.34 0.34 90 1011.3
20260509182204 53 281 0.0 0.0 0.03 0.34 0.34 90 1011.4
20260509181704 53 281 0.0 0.0 0.03 0.34 0.34 90 1011.4
20260509181204 53 281 0.9 1.7 0.03 0.34 0.34 90 1011.5
20260509180703 53 281 0.9 2.6 0.02 0.33 0.33 90 1011.6
20260509180204 53 281 0.0 0.9 0.02 0.33 0.33 90 1011.5
20260509175704 53 281 0.0 0.9 0.02 0.33 0.33 90 1011.5
20260509174704 53 281 0.0 1.7 0.02 0.32 0.32 90 1011.6
20260509173704 52 281 0.0 0.0 0.03 0.32 0.32 90 1011.6
20260509173204 52 281 0.0 0.0 0.03 0.32 0.32 90 1011.6
20260509172204 52 281 0.0 1.7 0.02 0.31 0.31 90 1011.7
20260509171704 52 281 0.9 2.6 0.02 0.31 0.31 90 1011.8
20260509170704 52 281 0.0 1.7 0.02 0.32 0.31 90 1011.9
20260509170204 51 281 0.0 0.9 0.02 0.32 0.31 90 1012.1
20260509165704 51 281 0.0 0.0 0.03 0.32 0.31 90 1012.2
20260509165203 51 281 0.0 0.9 0.02 0.31 0.30 90 1012.3
20260509164705 51 281 0.0 0.9 0.02 0.31 0.30 90 1012.4
20260509164204 50 281 0.0 0.9 0.02 0.31 0.30 90 1012.5
20260509163704 50 281 0.0 0.9 0.01 0.30 0.29 89 1012.6
20260509163204 50 281 0.0 0.0 0.01 0.30 0.29 89 1012.6
20260509162704 50 281 0.0 0.9 0.01 0.30 0.29 90 1012.6
20260509162204 50 281 0.0 0.0 0.01 0.30 0.29 90 1012.5
20260509161704 50 281 0.9 2.6 0.01 0.30 0.29 90 1012.5
20260509161204 50 281 0.0 0.0 0.02 0.30 0.29 90 1012.6
20260509160705 50 281 0.9 1.7 0.02 0.30 0.29 90 1012.6
20260509160204 50 281 0.0 1.7 0.02 0.30 0.29 90 1012.7
20260509155204 49 281 0.0 0.9 0.01 0.29 0.28 90 1012.7
20260509154703 49 281 0.9 1.7 0.01 0.29 0.28 90 1012.7
20260509154204 49 281 0.0 0.9 0.01 0.29 0.28 90 1012.8
20260509153703 49 281 0.9 2.6 0.01 0.29 0.28 90 1012.9